FW1232 Weather Reports


time (UTC)temp
F
wind
direction
speed
knots
gust
knots
rain 1hr
in
rain 24hr
in
rain mn
in
humidity
%
barometer
mb
20260903101604 75 98 0.9 2.6 0.00 0.00 0.00 99 1017.6
20260903100059 75 98 0.0 1.7 0.00 0.00 0.00 98 1017.6
20260903094610 75 98 0.9 2.6 0.00 0.00 0.00 98 1017.6
20260903093112 75 99 0.9 2.6 0.00 0.00 0.00 97 1017.5
20260903091601 75 99 0.9 1.7 0.00 0.00 0.00 97 1017.6
20260903084604 76 0 0.0 0.0 0.00 0.00 0.00 96 1017.4
20260903083057 76 0 0.0 0.0 0.00 0.00 0.00 96 1017.3
20260903081602 76 0 0.0 3.5 0.00 0.00 0.00 95 1017.3
20260903080107 76 0 0.0 0.9 0.00 0.00 0.00 96 1017.4
20260903074558 76 0 0.9 2.6 0.00 0.00 0.00 96 1017.3
20260903073059 76 0 0.9 3.5 0.00 0.00 0.00 96 1017.2
20260903071604 76 111 0.0 2.6 0.00 0.00 0.00 95 1017.2
20260903070105 76 0 0.0 0.9 0.00 0.00 0.00 95 1017.4
20260903064601 76 111 0.9 2.6 0.00 0.00 0.00 94 1017.4
20260903063101 77 111 0.9 2.6 0.00 0.00 0.00 95 1017.4
20260903061608 77 111 0.9 2.6 0.00 0.00 0.00 94 1017.3
20260903060106 77 0 0.0 1.7 0.00 0.00 0.00 93 1017.4
20260903054602 78 111 0.9 1.7 0.00 0.00 0.00 91 1017.4
20260903053101 78 111 0.9 3.5 0.00 0.00 0.00 89 1017.4
20260903051605 78 0 0.0 0.0 0.00 0.00 0.00 88 1017.4
20260903050105 78 0 0.0 2.6 0.00 0.00 0.00 89 1017.3
20260903044601 78 173 0.9 2.6 0.00 0.00 0.00 87 1017.4
20260903043103 79 173 0.9 2.6 0.00 0.00 0.00 86 1017.3
20260903041616 79 200 0.9 2.6 0.00 0.00 0.00 87 1017.5
20260903040104 79 200 0.9 2.6 0.00 0.00 0.00 87 1017.5
20260903034604 79 200 0.9 1.7 0.00 0.00 0.00 87 1017.5
20260903033103 80 200 0.9 2.6 0.00 0.00 0.00 87 1017.6
20260903031601 80 208 0.9 2.6 0.00 0.00 0.00 86 1017.4
20260903024608 81 212 0.0 2.6 0.00 0.00 0.00 85 1017.4
20260903023124 81 0 0.0 1.7 0.00 0.00 0.00 83 1017.4
20260903021613 82 214 0.9 1.7 0.00 0.00 0.00 83 1017.4
20260903020100 83 0 0.0 1.7 0.00 0.00 0.00 81 1017.3
20260903014604 84 214 0.9 2.6 0.00 0.00 0.00 79 1017.2
20260903013103 84 0 0.0 0.0 0.00 0.00 0.00 78 1017.0
20260903011604 85 0 0.0 0.9 0.00 0.00 0.00 76 1016.8
20260903004559 86 0 0.0 2.6 0.00 0.00 0.00 73 1016.6
20260903003106 88 215 0.0 0.0 0.00 0.00 0.00 69 1016.6
20260903001600 89 0 0.0 1.7 0.00 0.00 0.00 67 1016.5
20260903000109 91 215 0.9 2.6 0.00 0.00 0.00 65 1016.4
20260902234609 93 215 0.0 2.6 0.00 0.00 0.00 61 1016.5
20260902233101 94 0 1.7 3.5 0.00 0.00 0.00 59 1016.6
20260902231603 96 201 0.9 3.5 0.00 0.00 0.00 56 1016.7
20260902230105 97 0 0.0 3.5 0.00 0.00 0.00 52 1016.8
20260902224600 97 204 0.9 1.7 0.00 0.00 0.00 58 1016.6
20260902223106 98 202 0.9 2.6 0.00 0.00 0.00 54 1016.7
20260902221605 98 198 0.0 2.6 0.00 0.00 0.00 49 1016.8
20260902220107 98 0 0.0 2.6 0.00 0.00 0.00 49 1016.8
20260902214600 99 0 0.0 1.7 0.00 0.00 0.00 49 1016.8
20260902213059 99 196 0.0 2.6 0.00 0.00 0.00 48 1016.8
20260902211607 97 196 0.0 2.6 0.00 0.00 0.00 51 1017.0
20260902204602 97 113 0.0 3.5 0.00 0.00 0.00 52 1017.1
20260902203058 96 313 0.9 5.2 0.00 0.00 0.00 51 1017.2
20260902201606 97 212 1.7 3.5 0.00 0.00 0.00 51 1017.3
20260902194604 97 230 0.0 7.8 0.00 0.00 0.00 51 1017.6
20260902193105 97 269 2.6 6.1 0.00 0.00 0.00 53 1017.9
20260902191604 97 264 3.5 6.1 0.00 0.00 0.00 54 1018.1
20260902190100 96 261 0.9 3.5 0.00 0.00 0.00 52 1018.3
20260902184602 96 254 0.9 6.1 0.00 0.00 0.00 53 1018.3
20260902183100 96 240 1.7 6.1 0.00 0.00 0.00 54 1018.4
20260902181600 95 269 1.7 5.2 0.00 0.00 0.00 56 1018.6
20260902174600 94 196 2.6 8.7 0.00 0.00 0.00 58 1018.7
20260902173101 94 194 1.7 6.1 0.00 0.00 0.00 58 1019.1
20260902171611 93 0 0.9 4.3 0.00 0.00 0.00 60 1019.2
20260902164604 91 185 1.7 3.5 0.00 0.00 0.00 65 1019.6
20260902163101 92 330 0.9 2.6 0.00 0.00 0.00 66 1019.8
20260902161614 92 329 0.9 2.6 0.00 0.00 0.00 67 1020.1
20260902160117 91 0 0.0 1.7 0.00 0.00 0.00 69 1020.3
20260902154601 89 46 0.0 1.7 0.00 0.00 0.00 73 1020.5
20260902153058 89 46 0.9 2.6 0.00 0.00 0.00 73 1020.5
20260902151606 87 0 0.0 1.7 0.00 0.00 0.00 79 1020.4
20260902150059 84 45 0.9 2.6 0.00 0.00 0.00 83 1020.5
20260902144613 86 46 0.9 2.6 0.00 0.00 0.00 80 1020.3
20260902143106 84 49 0.0 1.7 0.00 0.00 0.00 81 1020.2
20260902141558 82 0 0.0 1.7 0.00 0.00 0.00 83 1020.3
20260902140058 80 0 0.0 1.7 0.00 0.00 0.00 87 1020.3
20260902134557 80 0 0.0 1.7 0.00 0.00 0.00 89 1020.5
20260902133109 78 51 0.9 2.6 0.00 0.00 0.00 92 1020.4
20260902131559 77 51 0.9 3.5 0.00 0.00 0.00 94 1020.4
20260902124559 77 0 0.0 0.0 0.00 0.00 0.00 95 1020.3
20260902123110 76 0 0.0 0.0 0.00 0.00 0.00 95 1020.3
20260902121603 75 59 0.9 1.7 0.00 0.00 0.00 97 1020.3
20260902114604 73 59 1.7 2.6 0.00 0.00 0.00 99 1019.9
20260902113104 73 59 1.7 2.6 0.00 0.00 0.00 99 1019.6
20260902111606 73 59 0.9 2.6 0.00 0.00 0.00 99 1019.5
20260902110106 73 59 1.7 2.6 0.00 0.00 0.00 99 1019.3
20260902104610 73 59 0.9 2.6 0.00 0.00 0.00 99 1019.2
20260902103101 73 59 0.9 2.6 0.00 0.00 0.00 99 1019.0